Year,Month,Day,Hour,Minute,Value (Times are PST for temperature in C)
2015,04,27,07,39,10.10
2015,04,27,07,40,10.10
2015,04,27,07,41,10.10
2015,04,27,07,42,10.10
2015,04,27,07,43,10.10
2015,04,27,07,44,10.10
2015,04,27,07,45,10.10
2015,04,27,07,46,10.10
2015,04,27,07,47,10.10
2015,04,27,07,48,10.10
2015,04,27,07,49,10.10
2015,04,27,07,50,10.10
2015,04,27,07,51,10.10
2015,04,27,14,21,13.20
2015,04,27,14,22,13.30
2015,04,27,14,23,13.30
2015,04,27,14,24,13.30
2015,04,27,14,25,13.40
2015,04,27,14,26,13.50
2015,04,27,14,27,13.60
2015,04,27,14,28,13.50
2015,04,27,14,29,13.60
2015,04,27,14,30,13.60
2015,04,27,14,31,13.60
2015,04,27,14,32,13.70
2015,04,27,14,33,13.70
2015,04,27,14,34,13.70
2015,04,27,14,35,13.70
2015,04,27,14,36,13.70
2015,04,27,14,37,13.70
2015,04,27,14,38,13.80
2015,04,27,14,39,13.80
2015,04,27,14,40,13.90
2015,04,27,14,41,14.00
2015,04,27,14,42,14.10
2015,04,27,14,43,14.20
2015,04,27,14,44,14.30
2015,04,27,14,45,14.40
2015,04,27,14,46,14.50
2015,04,27,14,47,14.60
2015,04,27,14,48,14.70
2015,04,27,14,49,14.80
2015,04,27,14,50,14.90
2015,04,27,14,51,14.90
2015,04,27,14,52,14.90
2015,04,27,14,53,15.00
2015,04,27,14,54,15.10
2015,04,27,14,55,15.10
2015,04,27,14,56,15.10
2015,04,27,14,57,15.10
2015,04,27,14,58,15.20
2015,04,27,14,59,15.10
2015,04,27,15,00,15.10
2015,04,27,15,01,15.10
2015,04,27,15,02,15.10
2015,04,27,15,03,15.10
2015,04,27,15,04,15.10
2015,04,27,15,05,15.10
2015,04,27,15,06,15.10
2015,04,27,15,07,15.20
2015,04,27,15,08,15.20
2015,04,27,15,09,15.40
2015,04,27,15,10,15.40
2015,04,27,15,11,15.50
2015,04,27,15,12,15.50
2015,04,27,15,13,15.50
2015,04,27,15,14,15.50
2015,04,27,15,15,15.50
2015,04,27,15,16,15.50
2015,04,27,15,17,15.60
2015,04,27,15,18,15.80
2015,04,27,15,19,15.80
2015,04,27,15,20,15.80
2015,04,27,15,21,15.90
2015,04,27,15,22,15.90
2015,04,27,15,23,15.90
2015,04,27,15,24,15.90
2015,04,27,15,25,15.90
2015,04,27,15,26,16.00
2015,04,27,15,27,16.10
2015,04,27,15,28,16.00
2015,04,27,15,29,15.90
2015,04,27,15,30,15.90
2015,04,27,15,31,15.90
2015,04,27,15,32,15.90
2015,04,27,15,33,16.10
2015,04,27,15,34,16.10
2015,04,27,15,35,16.10
2015,04,27,15,36,16.20
2015,04,27,15,37,16.20
2015,04,27,15,38,16.20
2015,04,27,15,39,16.30
2015,04,27,15,40,16.30
2015,04,27,15,41,16.40
2015,04,27,15,42,16.40
2015,04,27,15,43,16.40
2015,04,27,15,44,16.40
2015,04,27,15,45,16.50
2015,04,27,15,46,16.60
2015,04,27,15,47,16.70
2015,04,27,15,48,16.80
2015,04,27,15,49,16.90
2015,04,27,15,50,17.00
2015,04,27,15,51,17.00
2015,04,27,15,52,17.00
2015,04,27,15,53,17.10
2015,04,27,15,54,17.10
2015,04,27,15,55,17.10
2015,04,27,15,56,17.10
2015,04,27,15,57,17.10
2015,04,27,15,58,17.20
2015,04,27,15,59,17.30
2015,04,27,16,00,17.40
2015,04,27,16,01,17.50
2015,04,27,16,02,17.50
2015,04,27,16,03,17.60
2015,04,27,16,04,17.60
2015,04,27,16,05,17.60
2015,04,27,16,06,17.60
2015,04,27,16,07,17.60
2015,04,27,16,08,17.70
2015,04,27,16,09,17.70
2015,04,27,16,10,17.80
2015,04,27,16,11,17.80
2015,04,27,16,12,17.90
2015,04,27,16,13,18.00
2015,04,27,16,14,18.10
2015,04,27,16,15,18.10
2015,04,27,16,16,18.10
2015,04,27,16,17,18.00
2015,04,27,16,18,17.90
2015,04,27,16,19,17.90
2015,04,27,16,20,17.90
2015,04,27,16,21,17.90
2015,04,27,16,22,17.90
2015,04,27,16,23,17.90
2015,04,27,16,24,17.90
2015,04,27,16,25,17.80
2015,04,27,16,26,17.80
2015,04,27,16,27,17.80
2015,04,27,16,28,17.80
2015,04,27,16,29,17.80
2015,04,27,16,30,17.80
2015,04,27,16,31,17.80
2015,04,27,16,32,17.80
2015,04,27,16,33,17.80
2015,04,27,16,34,17.80
2015,04,27,16,35,17.70
2015,04,27,16,36,17.80
2015,04,27,16,37,17.80
2015,04,27,16,38,17.80
2015,04,27,16,39,17.80
2015,04,27,16,40,17.80
2015,04,27,16,41,17.80
2015,04,27,16,42,17.70
2015,04,27,16,43,17.70
2015,04,27,16,44,17.70
2015,04,27,16,45,17.70
2015,04,27,16,46,17.60
2015,04,27,16,47,17.50
2015,04,27,16,48,17.40
2015,04,27,16,49,17.50
2015,04,27,16,50,17.50
2015,04,27,16,51,17.50
2015,04,27,16,52,17.60
2015,04,27,16,53,17.60
2015,04,27,16,54,17.60
2015,04,27,16,55,17.70
2015,04,27,16,56,17.70
2015,04,27,16,57,17.70
2015,04,27,16,58,17.60
2015,04,27,16,59,17.60
2015,04,27,17,00,17.60
2015,04,27,17,01,17.60
2015,04,27,17,02,17.60
2015,04,27,17,03,17.60
2015,04,27,17,04,17.50
2015,04,27,17,05,17.50
2015,04,27,17,06,17.50
2015,04,27,17,07,17.50
2015,04,27,17,08,17.50
2015,04,27,17,09,17.40
2015,04,27,17,10,17.30
2015,04,27,17,11,17.30
2015,04,27,17,12,17.30
2015,04,27,17,13,17.30
2015,04,27,17,14,17.30
2015,04,27,17,15,17.30
2015,04,27,17,16,17.30
2015,04,27,17,17,17.30
2015,04,27,17,18,17.30
2015,04,27,17,19,17.30
2015,04,27,17,20,17.30
2015,04,27,17,21,17.30
2015,04,27,17,22,17.30
2015,04,27,17,23,17.20
2015,04,27,17,24,17.20
2015,04,27,17,25,17.20
2015,04,27,17,26,17.30
2015,04,27,17,27,17.30
2015,04,27,17,28,17.30
2015,04,27,17,29,17.50
2015,04,27,17,30,17.50
2015,04,27,17,31,17.60
2015,04,27,17,32,17.70
2015,04,27,17,33,17.80
2015,04,27,17,34,17.80
2015,04,27,17,35,17.80
2015,04,27,17,36,17.80
2015,04,27,17,37,17.80
2015,04,27,17,38,17.80
2015,04,27,17,39,17.80
2015,04,27,17,40,17.80
2015,04,27,17,41,17.90
2015,04,27,17,42,17.90
2015,04,27,17,43,17.90
2015,04,27,17,44,17.90
2015,04,27,17,45,17.90
2015,04,27,17,46,17.90
2015,04,27,17,47,17.90
2015,04,27,17,48,17.90
2015,04,27,17,49,17.90
2015,04,27,17,50,17.80
2015,04,27,17,51,17.80
2015,04,27,17,52,17.80
2015,04,27,17,53,17.80
2015,04,27,17,54,17.70
2015,04,27,17,55,17.70
2015,04,27,17,56,17.70
2015,04,27,17,57,17.70
2015,04,27,17,58,17.70
2015,04,27,17,59,17.70
2015,04,27,18,00,17.80
2015,04,27,18,01,17.80
2015,04,27,18,02,17.90
2015,04,27,18,03,17.90
2015,04,27,18,04,17.90
2015,04,27,18,05,17.90
2015,04,27,18,06,17.90
2015,04,27,18,07,17.90
2015,04,27,18,08,17.90
2015,04,27,18,09,17.90
2015,04,27,18,10,17.90
2015,04,27,18,11,17.90
2015,04,27,18,12,17.90
2015,04,27,18,13,17.90
2015,04,27,18,14,17.90
2015,04,27,18,15,17.90
2015,04,27,18,16,17.90
2015,04,27,18,17,17.90
2015,04,27,18,18,17.70
2015,04,27,18,19,17.70
2015,04,27,18,20,17.70
2015,04,27,18,21,17.70
2015,04,27,18,22,17.60
2015,04,27,18,23,17.70
2015,04,27,18,24,17.70
2015,04,27,18,25,17.70
2015,04,27,18,26,17.80
2015,04,27,18,27,17.80
2015,04,27,18,28,17.80
2015,04,27,18,29,17.70
2015,04,27,18,30,17.60
2015,04,27,18,31,17.60
2015,04,27,18,32,17.60
2015,04,27,18,33,17.50
2015,04,27,18,34,17.40
2015,04,27,18,35,17.40
2015,04,27,18,36,17.30
2015,04,27,18,37,17.30
2015,04,27,18,38,17.30
2015,04,27,18,39,17.20
2015,04,27,18,40,17.20
2015,04,27,18,41,17.00
2015,04,27,18,42,17.00
2015,04,27,18,43,16.90
2015,04,27,18,44,16.80
2015,04,27,18,45,16.80
2015,04,27,18,46,16.80
2015,04,27,18,47,16.80
2015,04,27,18,48,16.80
2015,04,27,18,49,16.80
2015,04,27,18,50,16.80
2015,04,27,18,51,16.80
2015,04,27,18,52,16.70
2015,04,27,18,53,16.70
2015,04,27,18,54,16.70
2015,04,27,18,55,16.70
2015,04,27,18,56,16.70
2015,04,27,18,57,16.70
2015,04,27,18,58,16.70
2015,04,27,18,59,16.70
2015,04,27,19,00,16.70
2015,04,27,19,01,16.70
2015,04,27,19,02,16.70
2015,04,27,19,03,16.70
2015,04,27,19,04,16.70
2015,04,27,19,05,16.70
2015,04,27,19,06,16.70
2015,04,27,19,07,16.70
2015,04,27,19,08,16.70
2015,04,27,19,09,16.60
2015,04,27,19,10,16.60
2015,04,27,19,11,16.60
2015,04,27,19,12,16.40
2015,04,27,19,13,16.40
2015,04,27,19,14,16.30
2015,04,27,19,15,16.30
2015,04,27,19,16,16.30
2015,04,27,19,17,16.20
2015,04,27,19,18,16.20
2015,04,27,19,19,16.10
2015,04,27,19,20,16.10
2015,04,27,19,21,16.00
2015,04,27,19,22,15.90
2015,04,27,19,23,15.80
2015,04,27,19,24,15.80
2015,04,27,19,25,15.80
2015,04,27,19,26,15.80
2015,04,27,19,27,15.80
2015,04,27,19,28,15.80
2015,04,27,19,29,15.70
2015,04,27,19,30,15.70
2015,04,27,19,31,15.60
2015,04,27,19,32,15.60
2015,04,27,19,33,15.60
2015,04,27,19,34,15.60
2015,04,27,19,35,15.60
2015,04,27,19,36,15.50
2015,04,27,19,37,15.50
2015,04,27,19,38,15.50
2015,04,27,19,39,15.50
2015,04,27,19,40,15.40
2015,04,27,19,41,15.40
2015,04,27,19,42,15.40
2015,04,27,19,43,15.30
2015,04,27,19,44,15.30
2015,04,27,19,45,15.30
2015,04,27,19,46,15.30
2015,04,27,19,47,15.20
2015,04,27,19,48,15.20
2015,04,27,19,49,15.20
2015,04,27,19,50,15.10
2015,04,27,19,51,15.10
2015,04,27,19,52,15.00
2015,04,27,19,53,15.00
2015,04,27,19,54,14.90
2015,04,27,19,55,14.90
2015,04,27,19,56,14.90
2015,04,27,19,57,14.80
2015,04,27,19,58,14.80
2015,04,27,19,59,14.70
2015,04,27,20,00,14.70
2015,04,27,20,01,14.60
2015,04,27,20,02,14.60
2015,04,27,20,03,14.60
2015,04,27,20,04,14.50
2015,04,27,20,05,14.50
2015,04,27,20,06,14.40
2015,04,27,20,07,14.40
2015,04,27,20,08,14.30
2015,04,27,20,09,14.30
2015,04,27,20,10,14.30
2015,04,27,20,11,14.20
2015,04,27,20,12,14.20
2015,04,27,20,13,14.20
2015,04,27,20,14,14.20
2015,04,27,20,15,14.20
2015,04,27,20,16,14.20
2015,04,27,20,17,14.20
2015,04,27,20,18,14.20
2015,04,27,20,19,14.20
2015,04,27,20,20,14.20
2015,04,27,20,21,14.20
2015,04,27,20,22,14.20
2015,04,27,20,23,14.20
